Location: Seven Kings
(51.5667°N, 0.1000°E)
Time: 03:38:07
(UTC+00:00)

Cosmos 1697 Rocket - Pass Details

Date: 29 October 2020
Orbit: 831 x 845 km, 71.0° (Epoch: 27 November)

Event Time Altitude Azimuth Distance (km) Brightness Sun altitude
Rises 18:49:59 0° 206° (SSW) 3,367 6.1 -21.1°
Reaches altitude 10° 18:52:24 10° 205° (SSW) 2,439 5.3 -21.5°
Maximum altitude 18:58:00 84° 120° (ESE) 847 2.5 -22.3°
Enters shadow 19:01:37 23° 32° (NNE) 1,706 4.0 -22.9°
